Torna al catalogo

STARLINK-33712

AttivoComunicazioniVLEO
NORAD 63797·PAYLOAD·🇺🇸 United States

Lanciato May 2, 2025 da Cape Canaveral Space Force Station

Loading…

Prossimi Passaggi (prossime 24 ore)

TLE

AggiornatoSource: CelesTrak SupGP

Epoca: Sep 14, 2026, 22:28 UTC

1 63797C 25091Y   26257.93659722  .00057039  00000+0  20664-2 0  2574
2 63797  43.0039  67.3988 0001736 275.5780  87.3398 15.27542768    11

Traccia STARLINK-33712 in tempo reale con AllMySat

Download on the App Store